TimeCST,TemperatureF,Dew PointF,Humidity,Sea Level PressureIn,VisibilityMPH,Wind Direction,Wind SpeedMPH,Gust SpeedMPH,PrecipitationIn,Events,Conditions,WindDirDegrees,DateUTC
12:15 AM,16.2,14.2,92,30.14,10.0,Calm,Calm,-,N/A,,Clear,0,2013-12-15 06:15:00
12:35 AM,16.3,14.7,93,30.14,10.0,Calm,Calm,-,N/A,,Clear,0,2013-12-15 06:35:00
12:55 AM,16.7,15.3,94,30.13,10.0,Calm,Calm,-,N/A,,Clear,0,2013-12-15 06:55:00
1:15 AM,17.2,14.9,91,30.13,10.0,East,3.5,-,N/A,,Clear,100,2013-12-15 07:15:00
1:35 AM,16.9,14.9,92,30.12,10.0,ESE,4.6,-,N/A,,Clear,110,2013-12-15 07:35:00
1:55 AM,17.2,15.3,92,30.10,10.0,SE,8.1,-,N/A,,Clear,140,2013-12-15 07:55:00
2:15 AM,17.2,15.3,92,30.10,10.0,ESE,6.9,-,N/A,,Clear,110,2013-12-15 08:15:00
2:35 AM,17.6,15.6,92,30.10,10.0,East,5.8,-,N/A,,Clear,90,2013-12-15 08:35:00
2:55 AM,17.4,15.6,93,30.08,10.0,ESE,6.9,-,N/A,,Clear,110,2013-12-15 08:55:00
3:15 AM,17.6,15.6,92,30.08,10.0,ESE,5.8,-,N/A,,Clear,110,2013-12-15 09:15:00
3:35 AM,17.6,15.4,91,30.08,10.0,ESE,4.6,-,N/A,,Clear,110,2013-12-15 09:35:00
3:55 AM,17.6,14.9,89,30.06,10.0,ESE,6.9,-,N/A,,Clear,120,2013-12-15 09:55:00
4:15 AM,17.8,15.3,90,30.06,10.0,ESE,4.6,-,N/A,,Clear,120,2013-12-15 10:15:00
4:35 AM,18.1,15.6,90,30.05,10.0,East,4.6,-,N/A,,Clear,100,2013-12-15 10:35:00
4:55 AM,18.3,15.8,90,30.05,10.0,East,4.6,-,N/A,,Clear,100,2013-12-15 10:55:00
5:15 AM,18.9,16.7,91,30.04,10.0,SE,3.5,-,N/A,,Clear,130,2013-12-15 11:15:00
5:35 AM,19.0,16.7,91,30.05,10.0,East,3.5,-,N/A,,Clear,90,2013-12-15 11:35:00
5:55 AM,17.6,15.8,93,30.04,10.0,ESE,4.6,-,N/A,,Clear,110,2013-12-15 11:55:00
6:15 AM,17.6,16.0,93,30.03,10.0,East,3.5,-,N/A,,Clear,90,2013-12-15 12:15:00
6:35 AM,18.5,16.3,91,30.04,10.0,East,3.5,-,N/A,,Clear,90,2013-12-15 12:35:00
6:55 AM,17.4,15.4,92,30.03,10.0,East,4.6,-,N/A,,Clear,90,2013-12-15 12:55:00
7:15 AM,16.9,14.9,92,30.03,10.0,Calm,Calm,-,N/A,,Clear,0,2013-12-15 13:15:00
7:35 AM,16.5,14.7,93,30.05,10.0,NE,6.9,-,N/A,,Clear,40,2013-12-15 13:35:00
7:55 AM,15.8,14.0,93,30.05,10.0,ENE,3.5,-,N/A,,Clear,70,2013-12-15 13:55:00
8:15 AM,16.0,14.5,94,30.04,7.0,East,4.6,-,N/A,,Clear,80,2013-12-15 14:15:00
8:35 AM,16.7,14.4,91,30.04,10.0,ENE,6.9,-,N/A,,Clear,60,2013-12-15 14:35:00
8:55 AM,16.5,13.8,89,30.04,10.0,East,5.8,-,N/A,,Clear,80,2013-12-15 14:55:00
9:15 AM,17.6,14.5,88,30.05,10.0,East,3.5,-,N/A,,Clear,90,2013-12-15 15:15:00
9:35 AM,18.3,14.7,86,30.05,10.0,ENE,9.2,-,N/A,,Clear,70,2013-12-15 15:35:00
9:55 AM,18.3,14.9,86,30.06,10.0,NE,6.9,-,N/A,,Clear,50,2013-12-15 15:55:00
10:15 AM,19.0,15.4,86,30.06,10.0,ENE,5.8,-,N/A,,Clear,60,2013-12-15 16:15:00
10:35 AM,19.9,15.8,84,30.06,10.0,East,4.6,-,N/A,,Clear,80,2013-12-15 16:35:00
10:55 AM,21.2,16.5,82,30.07,10.0,Calm,Calm,-,N/A,,Clear,0,2013-12-15 16:55:00
11:15 AM,21.2,16.3,82,30.05,10.0,Calm,Calm,-,N/A,,Clear,0,2013-12-15 17:15:00
11:35 AM,22.5,16.9,79,30.05,10.0,ENE,3.5,-,N/A,,Clear,60,2013-12-15 17:35:00
11:55 AM,23.2,17.8,80,30.05,10.0,NE,4.6,-,N/A,,Clear,50,2013-12-15 17:55:00
12:15 PM,24.8,19.4,80,30.03,10.0,ESE,4.6,-,N/A,,Clear,110,2013-12-15 18:15:00
12:35 PM,24.6,19.6,81,30.01,10.0,ESE,4.6,-,N/A,,Clear,120,2013-12-15 18:35:00
12:55 PM,24.6,19.8,82,30.00,10.0,East,5.8,-,N/A,,Clear,100,2013-12-15 18:55:00
1:15 PM,25.0,20.7,84,29.99,10.0,ESE,6.9,-,N/A,,Clear,110,2013-12-15 19:15:00
1:35 PM,25.7,20.8,82,29.99,10.0,ESE,4.6,-,N/A,,Clear,120,2013-12-15 19:35:00
1:55 PM,26.1,21.0,81,29.99,10.0,Calm,Calm,-,N/A,,Clear,0,2013-12-15 19:55:00
2:15 PM,26.2,21.2,81,29.99,10.0,Calm,Calm,-,N/A,,Clear,0,2013-12-15 20:15:00
2:35 PM,26.6,21.4,81,29.98,10.0,SE,4.6,-,N/A,,Clear,130,2013-12-15 20:35:00
2:55 PM,26.6,21.6,81,29.98,10.0,ESE,4.6,-,N/A,,Clear,120,2013-12-15 20:55:00
3:15 PM,26.6,21.4,81,29.98,10.0,ESE,3.5,-,N/A,,Clear,110,2013-12-15 21:15:00
3:35 PM,27.1,22.1,81,29.97,10.0,SE,4.6,-,N/A,,Clear,130,2013-12-15 21:35:00
3:55 PM,27.5,22.5,81,29.97,10.0,SE,4.6,-,N/A,,Clear,130,2013-12-15 21:55:00
4:15 PM,27.9,22.3,80,29.97,10.0,East,3.5,-,N/A,,Clear,100,2013-12-15 22:15:00
4:35 PM,27.9,22.5,80,29.97,10.0,East,5.8,-,N/A,,Clear,90,2013-12-15 22:35:00
4:55 PM,27.5,22.1,80,29.98,10.0,ENE,3.5,-,N/A,,Clear,70,2013-12-15 22:55:00
5:15 PM,27.3,21.9,80,29.97,10.0,East,5.8,-,N/A,,Clear,90,2013-12-15 23:15:00
5:35 PM,26.6,21.7,82,29.95,10.0,East,6.9,-,N/A,,Clear,100,2013-12-15 23:35:00
5:55 PM,25.9,21.2,82,29.96,10.0,East,3.5,-,N/A,,Clear,80,2013-12-15 23:55:00
6:15 PM,25.9,21.2,82,29.97,10.0,Calm,Calm,-,N/A,,Clear,0,2013-12-16 00:15:00
6:35 PM,25.2,21.0,84,29.97,10.0,Calm,Calm,-,N/A,,Clear,0,2013-12-16 00:35:00
6:55 PM,24.4,20.8,86,29.96,10.0,Calm,Calm,-,N/A,,Clear,0,2013-12-16 00:55:00
7:15 PM,23.7,20.3,87,29.97,10.0,Calm,Calm,-,N/A,,Clear,0,2013-12-16 01:15:00
7:35 PM,23.0,20.1,89,29.96,10.0,ENE,3.5,-,N/A,,Clear,60,2013-12-16 01:35:00
7:55 PM,22.1,19.4,89,29.96,7.0,ENE,3.5,-,N/A,,Clear,60,2013-12-16 01:55:00
8:15 PM,22.1,19.4,89,29.97,10.0,ENE,4.6,-,N/A,,Clear,60,2013-12-16 02:15:00
8:35 PM,21.6,19.4,91,29.97,10.0,Calm,Calm,-,N/A,,Clear,0,2013-12-16 02:35:00
8:55 PM,21.2,19.2,92,29.97,7.0,Calm,Calm,-,N/A,,Clear,0,2013-12-16 02:55:00
9:15 PM,20.5,19.0,94,29.97,7.0,Calm,Calm,-,N/A,,Clear,0,2013-12-16 03:15:00
9:35 PM,18.7,17.1,93,29.96,7.0,Calm,Calm,-,N/A,,Clear,0,2013-12-16 03:35:00
9:55 PM,19.0,17.4,93,29.96,7.0,Calm,Calm,-,N/A,,Clear,0,2013-12-16 03:55:00
10:15 PM,18.7,17.6,96,29.96,7.0,Calm,Calm,-,N/A,,Clear,0,2013-12-16 04:15:00
10:35 PM,16.2,14.9,95,29.97,7.0,Calm,Calm,-,N/A,,Clear,0,2013-12-16 04:35:00
10:55 PM,18.0,16.9,96,29.97,7.0,Calm,Calm,-,N/A,,Clear,0,2013-12-16 04:55:00
11:15 PM,16.0,15.4,98,29.98,7.0,Calm,Calm,-,N/A,,Clear,0,2013-12-16 05:15:00
11:35 PM,16.5,15.8,97,29.97,7.0,Calm,Calm,-,N/A,,Clear,0,2013-12-16 05:35:00
11:55 PM,15.1,14.4,97,29.98,7.0,Calm,Calm,-,N/A,,Clear,0,2013-12-16 05:55:00